Datetime-UTC, Datetime-J2000, North, East, Up
2024/03/25 00:00:00, 764596800.00, 0.000000, 0.000000, 0.000000
2024/03/25 00:05:00, 764597100.00, -0.003200, -0.001000, -0.000200
2024/03/25 00:10:00, 764597400.00, -0.004300, 0.002500, 0.004100
2024/03/25 00:15:00, 764597700.00, 0.000900, 0.002600, 0.004400
2024/03/25 00:20:00, 764598000.00, -0.004300, 0.004200, 0.001400
2024/03/25 00:25:00, 764598300.00, -0.001700, 0.005200, 0.006500
2024/03/25 00:30:00, 764598600.00, 0.001300, 0.004000, 0.012600
2024/03/25 00:35:00, 764598900.00, -0.001100, 0.007500, 0.023600
2024/03/25 00:40:00, 764599200.00, -0.005900, 0.007800, 0.001300
2024/03/25 00:45:00, 764599500.00, -0.001100, 0.005200, 0.024700
2024/03/25 00:50:00, 764599800.00, 0.004400, 0.008200, 0.025800
2024/03/25 00:55:00, 764600100.00, 0.002100, 0.009900, 0.032500
2024/03/25 01:00:00, 764600400.00, -0.001300, 0.008000, 0.025400
2024/03/25 01:05:00, 764600700.00, -0.004900, 0.009800, 0.017900
2024/03/25 01:10:00, 764601000.00, -0.015900, 0.015100, 0.025200
2024/03/25 01:15:00, 764601300.00, -0.001600, 0.013100, 0.024900
2024/03/25 01:20:00, 764601600.00, -0.007800, 0.013200, 0.018500
2024/03/25 01:25:00, 764601900.00, -0.003900, 0.015500, 0.017600
2024/03/25 01:30:00, 764602200.00, -0.006400, 0.011800, 0.010900
2024/03/25 01:35:00, 764602500.00, -0.002500, 0.015500, 0.025100
2024/03/25 01:40:00, 764602800.00, -0.002100, 0.018400, 0.018700
2024/03/25 01:45:00, 764603100.00, -0.000100, 0.013000, 0.005200
2024/03/25 01:50:00, 764603400.00, 0.003100, 0.016200, 0.011100
2024/03/25 01:55:00, 764603700.00, 0.003000, 0.017500, 0.023600
2024/03/25 02:00:00, 764604000.00, 0.003200, 0.019300, 0.026900
2024/03/25 02:05:00, 764604300.00, 0.002900, 0.018900, 0.024300
2024/03/25 02:10:00, 764604600.00, 0.011800, 0.012700, 0.029200
2024/03/25 02:15:00, 764604900.00, 0.002100, 0.014100, 0.018500
2024/03/25 02:20:00, 764605200.00, 0.001300, 0.010600, 0.025800
2024/03/25 02:25:00, 764605500.00, 0.001900, 0.013700, 0.027300
2024/03/25 02:30:00, 764605800.00, -0.000400, 0.010100, 0.022600
2024/03/25 02:35:00, 764606100.00, -0.001900, 0.015400, 0.023700
2024/03/25 02:40:00, 764606400.00, 0.001600, 0.011900, 0.026700
2024/03/25 02:45:00, 764606700.00, 0.001500, 0.011800, 0.026200
2024/03/25 02:50:00, 764607000.00, 0.001300, 0.017500, 0.019100
2024/03/25 02:55:00, 764607300.00, 0.004700, 0.015400, 0.024900
2024/03/25 03:00:00, 764607600.00, 0.001300, 0.014500, 0.029900
2024/03/25 03:05:00, 764607900.00, 0.003500, 0.019100, 0.030900
2024/03/25 03:10:00, 764608200.00, 0.008700, 0.017800, 0.036000
2024/03/25 03:15:00, 764608500.00, -0.005900, 0.016300, 0.026900
2024/03/25 03:20:00, 764608800.00, 0.004900, 0.018800, 0.036900
2024/03/25 03:25:00, 764609100.00, 0.008400, 0.019500, 0.049800
2024/03/25 03:30:00, 764609400.00, 0.005700, 0.015700, 0.033600
2024/03/25 03:35:00, 764609700.00, 0.007600, 0.020700, 0.038100
2024/03/25 03:40:00, 764610000.00, 0.004900, 0.021500, 0.052000
2024/03/25 03:45:00, 764610300.00, -0.000900, 0.020900, 0.036200
2024/03/25 03:50:00, 764610600.00, 0.005500, 0.017800, 0.032500
2024/03/25 03:55:00, 764610900.00, -0.003800, 0.017300, 0.029000
2024/03/25 04:00:00, 764611200.00, -0.000100, 0.029400, 0.033800
2024/03/25 04:05:00, 764611500.00, 0.001500, 0.027000, 0.037100
2024/03/25 04:10:00, 764611800.00, -0.001200, 0.028500, 0.028700
2024/03/25 04:15:00, 764612100.00, -0.008100, 0.025600, 0.024300
2024/03/25 04:20:00, 764612400.00, -0.010500, 0.025200, 0.034400
2024/03/25 04:25:00, 764612700.00, -0.004900, 0.030900, 0.019000
2024/03/25 04:30:00, 764613000.00, -0.004800, 0.036300, 0.026200
2024/03/25 04:35:00, 764613300.00, -0.005500, 0.028800, 0.018100
2024/03/25 04:40:00, 764613600.00, -0.006600, 0.035300, 0.023900
2024/03/25 04:45:00, 764613900.00, -0.000100, 0.036000, 0.028200
2024/03/25 04:50:00, 764614200.00, -0.002000, 0.033600, 0.032200
2024/03/25 04:55:00, 764614500.00, -0.002900, 0.037700, 0.031800
2024/03/25 05:00:00, 764614800.00, 0.005900, 0.035500, 0.034000
2024/03/25 05:05:00, 764615100.00, 0.001700, 0.035100, 0.035500
2024/03/25 05:10:00, 764615400.00, 0.011400, 0.037300, 0.041800
2024/03/25 05:15:00, 764615700.00, 0.000000, 0.037600, 0.037200
2024/03/25 05:20:00, 764616000.00, 0.005100, 0.040200, 0.044600
2024/03/25 05:25:00, 764616300.00, 0.005800, 0.039100, 0.030200
2024/03/25 05:30:00, 764616600.00, 0.007900, 0.037400, 0.026300
2024/03/25 05:35:00, 764616900.00, 0.009700, 0.039000, 0.005600
2024/03/25 05:40:00, 764617200.00, 0.012400, 0.041300, 0.013200
2024/03/25 05:45:00, 764617500.00, 0.018700, 0.043800, 0.026000
2024/03/25 05:50:00, 764617800.00, 0.011800, 0.041200, 0.015100
2024/03/25 05:55:00, 764618100.00, 0.008200, 0.042500, 0.013800
2024/03/25 06:00:00, 764618400.00, 0.012100, 0.039000, 0.017800
2024/03/25 06:05:00, 764618700.00, 0.012900, 0.039800, 0.023000
2024/03/25 06:10:00, 764619000.00, 0.011000, 0.040400, 0.011800
2024/03/25 06:15:00, 764619300.00, 0.012300, 0.037500, 0.026700
2024/03/25 06:20:00, 764619600.00, 0.012700, 0.041700, 0.019300
2024/03/25 06:25:00, 764619900.00, 0.014900, 0.043400, 0.027700
2024/03/25 06:30:00, 764620200.00, 0.014700, 0.049400, 0.032100
2024/03/25 06:35:00, 764620500.00, 0.018300, 0.042500, 0.031400
2024/03/25 06:40:00, 764620800.00, 0.014600, 0.045800, 0.022200
2024/03/25 06:45:00, 764621100.00, 0.016800, 0.040600, 0.017800
2024/03/25 06:50:00, 764621400.00, 0.017200, 0.040800, 0.026500
2024/03/25 06:55:00, 764621700.00, 0.017100, 0.041700, 0.012200
2024/03/25 07:00:00, 764622000.00, 0.015500, 0.044200, 0.012900
2024/03/25 07:05:00, 764622300.00, 0.016000, 0.041700, 0.018700
2024/03/25 07:10:00, 764622600.00, 0.011400, 0.043300, 0.011500
2024/03/25 07:15:00, 764622900.00, 0.016200, 0.036600, 0.026500
2024/03/25 07:20:00, 764623200.00, 0.022000, 0.045300, 0.023400
2024/03/25 07:25:00, 764623500.00, 0.015600, 0.042000, 0.008500
2024/03/25 07:30:00, 764623800.00, 0.016800, 0.043300, 0.014100
2024/03/25 07:35:00, 764624100.00, 0.009500, 0.040200, -0.003000
2024/03/25 07:40:00, 764624400.00, 0.020400, 0.041200, 0.009300
2024/03/25 07:45:00, 764624700.00, 0.017100, 0.039300, -0.006800
2024/03/25 07:50:00, 764625000.00, 0.015400, 0.040100, -0.001100
2024/03/25 07:55:00, 764625300.00, 0.018700, 0.034800, -0.004800
2024/03/25 08:00:00, 764625600.00, 0.011800, 0.038800, -0.005000
2024/03/25 08:05:00, 764625900.00, 0.015600, 0.033200, -0.007600
2024/03/25 08:10:00, 764626200.00, 0.019800, 0.036900, -0.001700
2024/03/25 08:15:00, 764626500.00, 0.019000, 0.038700, 0.011000
2024/03/25 08:20:00, 764626800.00, 0.024100, 0.038000, 0.007900
2024/03/25 08:25:00, 764627100.00, 0.020900, 0.039600, 0.032000
2024/03/25 08:30:00, 764627400.00, 0.020100, 0.036100, 0.025800
2024/03/25 08:35:00, 764627700.00, 0.029800, 0.038900, 0.017400
2024/03/25 08:40:00, 764628000.00, 0.026700, 0.038500, 0.012100
2024/03/25 08:45:00, 764628300.00, 0.027900, 0.038500, 0.017100
2024/03/25 08:50:00, 764628600.00, 0.026700, 0.041500, 0.004300
2024/03/25 08:55:00, 764628900.00, 0.025900, 0.040400, 0.015300
2024/03/25 09:00:00, 764629200.00, 0.029400, 0.040600, 0.009300
2024/03/25 09:05:00, 764629500.00, 0.026300, 0.041100, -0.000200
2024/03/25 09:10:00, 764629800.00, 0.024900, 0.042100, -0.001400
2024/03/25 09:15:00, 764630100.00, 0.032800, 0.039800, 0.000500
2024/03/25 09:20:00, 764630400.00, 0.028300, 0.040200, -0.002600
2024/03/25 09:25:00, 764630700.00, 0.028500, 0.041000, -0.012800
2024/03/25 09:30:00, 764631000.00, 0.032900, 0.037600, -0.011400
2024/03/25 09:35:00, 764631300.00, 0.042400, 0.030000, -0.004700
2024/03/25 09:40:00, 764631600.00, 0.028000, 0.037100, -0.017700
2024/03/25 09:45:00, 764631900.00, 0.043800, 0.027900, 0.007900
2024/03/25 09:50:00, 764632200.00, 0.019600, 0.039700, -0.028700
2024/03/25 09:55:00, 764632500.00, 0.028200, 0.034400, 0.005700
2024/03/25 10:00:00, 764632800.00, 0.033700, 0.033500, 0.005800
2024/03/25 10:05:00, 764633100.00, 0.032700, 0.027400, 0.012200
2024/03/25 10:10:00, 764633400.00, 0.035000, 0.027900, 0.021400
2024/03/25 10:15:00, 764633700.00, 0.038000, 0.029600, 0.023200
2024/03/25 10:20:00, 764634000.00, 0.037300, 0.025900, -0.007100
2024/03/25 10:25:00, 764634300.00, 0.030300, 0.034100, 0.005600
2024/03/25 10:30:00, 764634600.00, 0.033400, 0.027800, -0.002800
2024/03/25 10:35:00, 764634900.00, 0.033400, 0.029700, 0.010500
2024/03/25 10:40:00, 764635200.00, 0.032300, 0.025400, -0.002300
2024/03/25 10:45:00, 764635500.00, 0.036800, 0.027100, 0.015900
2024/03/25 10:50:00, 764635800.00, 0.024700, 0.022300, -0.004900
2024/03/25 10:55:00, 764636100.00, 0.026700, 0.024600, -0.019000
2024/03/25 11:00:00, 764636400.00, 0.029800, 0.023100, 0.004700
2024/03/25 11:05:00, 764636700.00, 0.026000, 0.023700, 0.005400
2024/03/25 11:10:00, 764637000.00, 0.017900, 0.031200, 0.007800
2024/03/25 11:15:00, 764637300.00, 0.025600, 0.028100, 0.010500
2024/03/25 11:20:00, 764637600.00, 0.022100, 0.025500, 0.017400
2024/03/25 11:25:00, 764637900.00, 0.015500, 0.033900, 0.017900
2024/03/25 11:30:00, 764638200.00, 0.027100, 0.031200, 0.012600
2024/03/25 11:35:00, 764638500.00, 0.024900, 0.032300, 0.009700
2024/03/25 11:40:00, 764638800.00, 0.020700, 0.033100, 0.021100
2024/03/25 11:45:00, 764639100.00, 0.019200, 0.032900, 0.016900
2024/03/25 11:50:00, 764639400.00, 0.021800, 0.032600, 0.027400
2024/03/25 11:55:00, 764639700.00, 0.018600, 0.032200, 0.020500
2024/03/25 12:00:00, 764640000.00, 0.018400, 0.035700, 0.012300
2024/03/25 12:05:00, 764640300.00, 0.020300, 0.032600, 0.019600
2024/03/25 12:10:00, 764640600.00, 0.016300, 0.036100, 0.005200
2024/03/25 12:15:00, 764640900.00, 0.014000, 0.034800, 0.007200
2024/03/25 12:20:00, 764641200.00, 0.013700, 0.033200, -0.005900
2024/03/25 12:25:00, 764641500.00, 0.011400, 0.038900, 0.000100
2024/03/25 12:30:00, 764641800.00, 0.012600, 0.035800, -0.001900
2024/03/25 12:35:00, 764642100.00, 0.016500, 0.036100, -0.001400
2024/03/25 12:40:00, 764642400.00, 0.016000, 0.033300, -0.002800
2024/03/25 12:45:00, 764642700.00, 0.013300, 0.037300, -0.008400
2024/03/25 12:50:00, 764643000.00, 0.014100, 0.030400, 0.000300
2024/03/25 12:55:00, 764643300.00, 0.019500, 0.030800, 0.014500
2024/03/25 13:00:00, 764643600.00, 0.017800, 0.033000, 0.013200
2024/03/25 13:05:00, 764643900.00, 0.024400, 0.028600, 0.024200
2024/03/25 13:10:00, 764644200.00, 0.018700, 0.034300, 0.015700
2024/03/25 13:15:00, 764644500.00, 0.026600, 0.028500, 0.028700
2024/03/25 13:20:00, 764644800.00, 0.022500, 0.028500, 0.048800
2024/03/25 13:25:00, 764645100.00, 0.026200, 0.034100, 0.021100
2024/03/25 13:30:00, 764645400.00, 0.017900, 0.034100, 0.036700
2024/03/25 13:35:00, 764645700.00, 0.026200, 0.036400, 0.026000
2024/03/25 13:40:00, 764646000.00, 0.019300, 0.026800, 0.033700
2024/03/25 13:45:00, 764646300.00, 0.033900, 0.031400, 0.050300
2024/03/25 13:50:00, 764646600.00, 0.022000, 0.033700, 0.043100
2024/03/25 13:55:00, 764646900.00, 0.016200, 0.032400, 0.038400
2024/03/25 14:00:00, 764647200.00, 0.024100, 0.035200, 0.043800
2024/03/25 14:05:00, 764647500.00, 0.019000, 0.035300, 0.015900
2024/03/25 14:10:00, 764647800.00, 0.022000, 0.032500, 0.029000
2024/03/25 14:15:00, 764648100.00, 0.015900, 0.035300, 0.017600
2024/03/25 14:20:00, 764648400.00, 0.016200, 0.034600, 0.022600
2024/03/25 14:25:00, 764648700.00, 0.025200, 0.035800, 0.029600
2024/03/25 14:30:00, 764649000.00, 0.023200, 0.035900, 0.030200
2024/03/25 14:35:00, 764649300.00, 0.020000, 0.033300, 0.019400
2024/03/25 14:40:00, 764649600.00, 0.018300, 0.030500, 0.020400
2024/03/25 14:45:00, 764649900.00, 0.023200, 0.032400, 0.020300
2024/03/25 14:50:00, 764650200.00, 0.015100, 0.036100, 0.016200
2024/03/25 14:55:00, 764650500.00, 0.016700, 0.039200, 0.002400
2024/03/25 15:00:00, 764650800.00, 0.015300, 0.037100, 0.021000
2024/03/25 15:05:00, 764651100.00, 0.014200, 0.034200, 0.011500
2024/03/25 15:10:00, 764651400.00, 0.013000, 0.035400, 0.018200
2024/03/25 15:15:00, 764651700.00, 0.010900, 0.038100, 0.015700
2024/03/25 15:20:00, 764652000.00, 0.014900, 0.037400, 0.023000
2024/03/25 15:25:00, 764652300.00, 0.014100, 0.036200, 0.012200
2024/03/25 15:30:00, 764652600.00, 0.011300, 0.029700, 0.001400
2024/03/25 15:35:00, 764652900.00, 0.021500, 0.031800, 0.015300
2024/03/25 15:40:00, 764653200.00, 0.013500, 0.032000, 0.026600
2024/03/25 15:45:00, 764653500.00, 0.017300, 0.029700, 0.030700
2024/03/25 15:50:00, 764653800.00, 0.023500, 0.029600, 0.017600
2024/03/25 15:55:00, 764654100.00, 0.031900, 0.032200, 0.029500
2024/03/25 16:00:00, 764654400.00, 0.028600, 0.028700, 0.021500
2024/03/25 16:05:00, 764654700.00, 0.024300, 0.033300, 0.004600
2024/03/25 16:10:00, 764655000.00, 0.018200, 0.030200, 0.011100
2024/03/25 16:15:00, 764655300.00, 0.011800, 0.028500, 0.023400
2024/03/25 16:20:00, 764655600.00, 0.024300, 0.034200, 0.014800
2024/03/25 16:25:00, 764655900.00, 0.009000, 0.037100, 0.014700
2024/03/25 16:30:00, 764656200.00, 0.015500, 0.036700, 0.020400
2024/03/25 16:35:00, 764656500.00, 0.027700, 0.042500, 0.002100
2024/03/25 16:40:00, 764656800.00, 0.020600, 0.043700, 0.016300
2024/03/25 16:45:00, 764657100.00, 0.007900, 0.043200, 0.007700
2024/03/25 16:50:00, 764657400.00, 0.015400, 0.041500, 0.006600
2024/03/25 16:55:00, 764657700.00, 0.018000, 0.047600, 0.005800
2024/03/25 17:00:00, 764658000.00, 0.014000, 0.043600, 0.020100
2024/03/25 17:05:00, 764658300.00, 0.021000, 0.047800, 0.017900
2024/03/25 17:10:00, 764658600.00, 0.015100, 0.046200, 0.013300
2024/03/25 17:15:00, 764658900.00, 0.018300, 0.045700, 0.029700
2024/03/25 17:20:00, 764659200.00, 0.017500, 0.050500, 0.006300
2024/03/25 17:25:00, 764659500.00, 0.017400, 0.046400, 0.022700
2024/03/25 17:30:00, 764659800.00, 0.017400, 0.047100, 0.027500
2024/03/25 17:35:00, 764660100.00, 0.018000, 0.048500, 0.022800
2024/03/25 17:40:00, 764660400.00, 0.017500, 0.050800, 0.013700
2024/03/25 17:45:00, 764660700.00, 0.016800, 0.050200, 0.013600
2024/03/25 17:50:00, 764661000.00, 0.018400, 0.046600, 0.003200
2024/03/25 17:55:00, 764661300.00, 0.017300, 0.050500, 0.016100
2024/03/25 18:00:00, 764661600.00, 0.019900, 0.047900, 0.004300
2024/03/25 18:05:00, 764661900.00, 0.018800, 0.048200, 0.002400
2024/03/25 18:10:00, 764662200.00, 0.017800, 0.047000, 0.006700
2024/03/25 18:15:00, 764662500.00, 0.010800, 0.048400, 0.020800
2024/03/25 18:20:00, 764662800.00, 0.013700, 0.047700, 0.024500
2024/03/25 18:25:00, 764663100.00, 0.007400, 0.048000, 0.014200
2024/03/25 18:30:00, 764663400.00, 0.009900, 0.048500, 0.025000
2024/03/25 18:35:00, 764663700.00, 0.014000, 0.046700, 0.013000
2024/03/25 18:40:00, 764664000.00, 0.006700, 0.049300, 0.011800
2024/03/25 18:45:00, 764664300.00, 0.013400, 0.045100, 0.009700
2024/03/25 18:50:00, 764664600.00, 0.018200, 0.042000, 0.017100
2024/03/25 18:55:00, 764664900.00, 0.012400, 0.046000, 0.009100
2024/03/25 19:00:00, 764665200.00, 0.017700, 0.043600, 0.003500
2024/03/25 19:05:00, 764665500.00, 0.017200, 0.044400, 0.010200
2024/03/25 19:10:00, 764665800.00, 0.004600, 0.049700, -0.004700
2024/03/25 19:15:00, 764666100.00, 0.019300, 0.043200, 0.006700
2024/03/25 19:20:00, 764666400.00, 0.020800, 0.045900, 0.006000
2024/03/25 19:25:00, 764666700.00, 0.027500, 0.040400, 0.019900
2024/03/25 19:30:00, 764667000.00, 0.021000, 0.043000, 0.001300
2024/03/25 19:35:00, 764667300.00, 0.029300, 0.040300, 0.014600
2024/03/25 19:40:00, 764667600.00, 0.023800, 0.043900, 0.002600
2024/03/25 19:45:00, 764667900.00, 0.030100, 0.040200, 0.010400
2024/03/25 19:50:00, 764668200.00, 0.028500, 0.044500, 0.012100
2024/03/25 19:55:00, 764668500.00, 0.042100, 0.042900, 0.028100
2024/03/25 20:00:00, 764668800.00, 0.031000, 0.040000, 0.007400
2024/03/25 20:05:00, 764669100.00, 0.025000, 0.044200, 0.004300
2024/03/25 20:10:00, 764669400.00, 0.026900, 0.047800, 0.021900
2024/03/25 20:15:00, 764669700.00, 0.022800, 0.042100, -0.014000
2024/03/25 20:20:00, 764670000.00, 0.028300, 0.047000, 0.005000
2024/03/25 20:25:00, 764670300.00, 0.029400, 0.045400, -0.000900
2024/03/25 20:30:00, 764670600.00, 0.027000, 0.044000, 0.002300
2024/03/25 20:35:00, 764670900.00, 0.029400, 0.047900, 0.008200
2024/03/25 20:40:00, 764671200.00, 0.027900, 0.045200, -0.007900
2024/03/25 20:45:00, 764671500.00, 0.028600, 0.049900, 0.000900
2024/03/25 20:50:00, 764671800.00, 0.025000, 0.048200, -0.010300
2024/03/25 20:55:00, 764672100.00, 0.022400, 0.046900, -0.004700
2024/03/25 21:00:00, 764672400.00, 0.019800, 0.045100, -0.001600
2024/03/25 21:05:00, 764672700.00, 0.027500, 0.046300, -0.017500
2024/03/25 21:10:00, 764673000.00, 0.027200, 0.045300, -0.022000
2024/03/25 21:15:00, 764673300.00, 0.029900, 0.043000, -0.007800
2024/03/25 21:20:00, 764673600.00, 0.032500, 0.039700, -0.025500
2024/03/25 21:25:00, 764673900.00, 0.031600, 0.038000, -0.020100
2024/03/25 21:30:00, 764674200.00, 0.040800, 0.033800, -0.013000
2024/03/25 21:35:00, 764674500.00, 0.046300, 0.032100, -0.008400
2024/03/25 21:40:00, 764674800.00, 0.040200, 0.031200, -0.013800
2024/03/25 21:45:00, 764675100.00, 0.043500, 0.026600, -0.008300
2024/03/25 21:50:00, 764675400.00, 0.043400, 0.026600, -0.001900
2024/03/25 21:55:00, 764675700.00, 0.053800, 0.021000, 0.006200
2024/03/25 22:00:00, 764676000.00, 0.048100, 0.020200, 0.004900
2024/03/25 22:05:00, 764676300.00, 0.048200, 0.019900, 0.006400
2024/03/25 22:10:00, 764676600.00, 0.056600, 0.017900, 0.026000
2024/03/25 22:15:00, 764676900.00, 0.053200, 0.018400, 0.019300
2024/03/25 22:20:00, 764677200.00, 0.039600, 0.019200, -0.010400
2024/03/25 22:25:00, 764677500.00, 0.045300, 0.015700, 0.012700
2024/03/25 22:30:00, 764677800.00, 0.022000, 0.010600, -0.013100
2024/03/25 22:35:00, 764678100.00, 0.026000, 0.010300, -0.016200
2024/03/25 22:40:00, 764678400.00, 0.018200, 0.010200, -0.009700
2024/03/25 22:45:00, 764678700.00, 0.010500, 0.004700, -0.034700
2024/03/25 22:50:00, 764679000.00, 0.038000, 0.013400, 0.018700
2024/03/25 22:55:00, 764679300.00, 0.018200, 0.003000, -0.014000
2024/03/25 23:00:00, 764679600.00, 0.039500, 0.011900, 0.009700
2024/03/25 23:05:00, 764679900.00, 0.031300, 0.009800, 0.008500
2024/03/25 23:10:00, 764680200.00, 0.021000, 0.010200, -0.001400
2024/03/25 23:15:00, 764680500.00, 0.020700, 0.005400, 0.000800
2024/03/25 23:20:00, 764680800.00, 0.016100, 0.008300, -0.015300
2024/03/25 23:25:00, 764681100.00, 0.016200, 0.001400, -0.005900
2024/03/25 23:30:00, 764681400.00, 0.015100, 0.005100, -0.004700
2024/03/25 23:35:00, 764681700.00, 0.011500, 0.006400, 0.000300
2024/03/25 23:40:00, 764682000.00, 0.012900, 0.007200, -0.001700
2024/03/25 23:45:00, 764682300.00, 0.009800, 0.007200, 0.003700
2024/03/25 23:50:00, 764682600.00, 0.006700, 0.007100, 0.015100
2024/03/25 23:55:00, 764682900.00, 0.011900, 0.008300, 0.015000
